Location: Meinert
(37.9441°N, 122.0275°W)
Time: 19:09:16
(UTC+00:00)

ISS - Pass Details

Date: 18 April 2024
Orbit: 409 x 414 km, 51.6° (Epoch: 23 May)

Event Time Altitude Azimuth Distance (km) Brightness Sun altitude
Exits shadow 12:45:30 - 202° (SSW) 1,962 -0.8 -8.7°
Reaches altitude 10° 12:46:49 10° 193° (SSW) 1,466 -1.3 -8.5°
Maximum altitude 12:49:41 28° 133° (SE) 810 -2.0 -8.0°
Drops below altitude 10° 12:52:33 10° 72° (ENE) 1,472 0.8 -7.4°
Sets 12:54:48 0° 61° (ENE) 2,336 2.3 -7.0°
